Wind_Speed
73 75 78 81 84 88 93 101 104 102 100 101 103 89 81 74 70 67 64 60 49 34 24 22 32 37 35 45 65 75 75 77 81 89 95 97 97 102 108 112 115 116 118 117 117 111 107
72 74 77 80 83 89 95 102 105 106 103 104 105 97 85 76 73 71 68 64 53 42 32 23 21 30 33 44 60 71 75 79 84 83 92 94 95 102 106 113 117 119 119 120 117 112 110
71 74 77 81 86 90 93 100 108 109 107 107 110 106 91 81 78 74 71 65 55 46 38 26 15 20 29 44 54 67 74 79 84 84 88 94 97 100 103 110 119 122 121 120 118 114 111
73 74 77 81 87 90 96 97 109 112 111 109 112 109 97 88 81 77 73 69 59 47 39 28 12 14 27 38 51 61 71 77 83 83 86 93 96 99 103 108 117 123 122 118 118 119 116
72 74 78 82 84 90 97 101 106 111 113 113 112 112 102 93 83 78 76 72 64 48 39 31 14 8 19 33 44 59 68 74 81 84 85 90 93 95 100 104 111 118 121 116 119 120 118
71 73 78 81 84 90 97 102 104 109 114 115 113 112 107 96 88 83 75 72 66 51 42 33 21 4 14 29 42 55 64 71 81 83 84 86 88 92 95 98 104 113 120 121 121 122 120
69 74 76 80 83 89 95 101 104 108 112 114 114 115 108 102 92 86 80 72 67 53 46 35 26 9 8 23 36 49 61 67 78 82 81 79 82 86 92 96 102 114 123 128 124 123 124
68 72 76 78 83 88 93 98 100 104 110 112 113 112 109 101 94 88 80 75 69 59 50 37 27 18 5 14 29 46 58 70 77 78 78 77 79 85 92 96 100 109 116 128 127 127 125
66 71 74 78 82 87 91 93 98 102 104 108 111 110 108 102 95 88 80 75 67 62 55 42 28 21 9 11 26 43 56 67 75 80 78 78 79 83 88 92 95 102 112 125 128 128 125
63 68 72 75 81 85 91 88 93 100 101 107 108 108 106 102 97 90 82 75 71 62 58 46 31 23 13 7 16 33 56 66 70 74 74 75 73 77 83 88 92 96 104 113 130 127 125
61 65 70 72 78 83 89 88 90 100 97 102 106 105 102 100 96 89 82 75 69 63 58 49 36 25 15 12 9 15 37 49 62 64 63 64 65 71 76 83 87 92 99 107 120 134 128
59 64 69 71 76 81 88 87 89 92 95 98 104 105 101 98 94 89 80 74 67 62 56 50 41 25 19 11 13 17 34 47 49 54 53 60 62 62 68 73 80 85 89 98 106 121 130
57 62 66 70 74 79 85 84 88 93 96 97 102 102 101 97 91 87 78 71 64 58 54 48 40 30 18 13 13 18 25 24 26 31 41 41 47 49 55 61 68 75 80 86 94 101 112
56 60 64 68 73 77 83 82 87 88 91 94 97 101 99 95 92 85 78 69 62 56 49 45 40 32 19 15 8 11 21 27 22 20 31 38 43 47 46 50 51 57 66 77 86 91 103
56 59 62 67 70 75 79 80 83 88 91 92 94 99 97 95 93 83 78 67 60 52 46 41 38 31 23 13 15 8 16 24 22 23 33 37 44 44 44 46 47 51 53 64 75 86 94
57 59 61 65 67 73 78 81 82 86 87 91 96 97 96 95 90 86 77 68 57 50 43 37 32 30 22 14 4 11 19 19 22 27 31 34 39 41 41 41 40 45 55 58 67 75 86
57 59 62 62 67 71 76 79 80 84 88 87 96 98 97 97 92 86 76 68 57 48 43 37 28 24 20 12 6 3 12 22 28 31 32 34 39 39 38 40 42 41 46 53 63 66 74
58 58 62 62 66 70 74 77 76 80 85 89 94 94 98 100 98 83 76 66 58 48 40 34 29 22 16 12 3 1 9 13 19 26 34 33 33 33 36 38 39 42 47 54 61 65 69
59 59 62 64 66 69 73 75 76 79 83 91 88 97 97 98 99 88 77 66 58 45 38 32 28 22 16 12 8 4 7 12 17 21 25 29 32 31 33 35 38 41 45 51 56 61 65
59 59 62 64 66 68 71 73 75 80 84 86 85 95 98 93 94 90 82 72 57 46 34 29 25 22 16 11 7 4 3 5 12 14 19 23 25 28 29 30 32 36 38 42 48 52 58
58 60 62 63 68 69 71 75 75 78 85 90 86 95 106 89 97 92 80 72 58 47 36 25 22 20 17 11 8 4 2 3 4 10 16 19 22 25 28 30 32 34 37 39 42 46 50
57 60 65 65 67 69 72 76 78 79 85 89 85 94 104 98 92 95 82 74 58 46 38 29 20 18 17 12 9 8 6 5 6 7 8 12 20 24 26 27 29 32 37 39 41 42 44
58 62 65 67 70 70 72 76 81 82 84 88 90 90 103 103 89 90 83 72 56 45 41 32 21 18 16 16 13 11 11 10 10 9 10 10 13 16 19 25 28 32 32 35 37 42 44
61 64 65 67 71 71 74 79 82 83 85 88 90 93 102 102 92 89 81 76 56 45 40 30 26 20 17 16 16 13 13 14 14 14 13 13 13 14 16 18 21 24 26 31 35 36 37
62 66 65 67 71 74 77 82 84 84 87 89 91 91 102 94 90 91 80 78 62 43 41 31 27 24 19 17 18 16 15 15 16 18 17 17 17 16 16 17 18 17 20 26 31 34 35
63 65 67 69 73 77 81 83 85 85 88 91 91 90 100 103 94 87 80 78 66 45 37 33 26 24 22 21 19 19 17 17 18 18 20 20 20 19 18 17 14 13 19 24 27 29 32
65 63 69 72 75 78 82 84 85 88 90 90 94 95 100 108 92 80 80 76 59 43 38 33 25 23 24 23 20 20 20 19 19 19 21 21 22 22 22 19 16 17 19 19 24 28 28
67 66 70 74 77 81 83 85 87 90 91 93 97 98 96 105 97 72 79 73 57 43 38 33 25 25 25 23 22 23 23 22 21 21 21 21 22 22 24 21 21 18 18 17 20 25 28
68 70 72 76 80 83 84 87 90 93 94 95 95 95 103 99 95 74 71 68 56 43 36 30 27 25 26 24 24 25 26 24 22 22 23 23 22 22 24 24 21 22 20 18 16 19 26
Wind_Direction
334 338 343 344 346 347 347 343 344 347 351 356 357 357 356 353 352 351 346 345 339 335 316 287 263 256 237 216 215 219 214 211 212 213 212 212 211 210 208 209 211 212 214 213 215 215 217
333 338 342 343 345 349 347 344 345 346 350 355 357 359 359 358 357 356 354 352 349 347 343 321 266 245 231 213 211 212 210 209 212 213 212 212 211 210 207 207 208 213 214 215 214 215 218
331 337 341 343 344 347 347 345 345 345 350 354 356 360 1 2 360 0 359 357 355 353 348 337 288 238 223 215 208 206 206 207 210 210 211 210 211 210 208 206 207 212 213 215 215 215 217
330 337 340 342 344 346 346 348 345 345 348 353 355 358 2 2 3 2 3 2 0 359 356 351 318 227 214 207 205 204 203 204 209 210 210 210 211 209 208 207 209 209 214 215 214 215 217
330 335 339 342 344 346 347 347 346 346 347 351 355 357 1 3 4 4 6 5 4 3 6 5 354 248 210 206 203 202 201 201 207 209 211 210 210 210 208 209 209 209 214 214 216 217 217
330 334 339 342 343 345 347 347 349 346 347 349 351 355 0 4 4 5 9 8 7 7 12 13 12 351 188 196 198 198 197 199 206 210 210 211 209 210 209 210 209 208 210 215 214 218 218
329 332 338 341 343 345 347 348 347 346 346 347 349 353 359 3 5 7 7 8 11 12 17 15 25 28 186 193 193 195 193 198 206 211 210 211 209 209 209 210 209 208 208 213 216 218 221
328 331 336 338 344 345 347 350 352 349 347 347 348 353 359 3 4 5 6 9 13 14 21 20 28 35 100 186 190 191 194 198 206 211 211 209 209 210 210 209 210 209 211 212 218 218 221
326 330 335 337 342 345 349 350 356 351 349 348 349 354 358 360 4 3 6 9 13 16 22 22 32 42 60 167 182 192 194 196 205 212 211 210 209 209 211 212 211 211 212 210 217 222 222
324 328 333 337 340 345 348 350 354 353 353 350 351 356 358 0 2 4 5 8 10 17 23 22 29 41 62 133 179 193 192 201 208 213 215 212 210 211 212 214 213 213 213 213 214 222 225
323 327 331 336 340 345 346 347 355 355 356 352 353 356 358 360 2 3 4 6 10 13 19 22 27 44 54 102 143 193 201 209 211 217 220 215 214 214 214 216 216 215 215 215 215 217 225
322 326 330 334 339 343 347 347 351 357 357 356 356 357 358 359 1 1 2 4 7 12 14 20 25 38 52 79 137 178 199 209 218 220 224 218 217 216 218 219 219 219 219 219 219 220 222
321 324 329 332 337 343 346 346 353 358 358 359 356 355 357 358 359 360 1 2 4 9 13 15 24 28 60 68 126 187 208 222 230 232 233 234 227 225 223 223 223 224 224 223 224 224 223
319 322 327 331 336 342 344 347 352 357 358 359 356 356 356 356 357 357 358 360 2 6 9 13 19 28 37 76 89 165 211 232 234 237 240 239 238 236 232 231 228 226 226 226 225 225 225
315 320 325 328 335 339 341 344 351 356 359 358 356 354 355 354 356 356 356 358 360 1 6 11 15 22 31 63 105 155 207 210 229 234 232 235 241 244 244 239 236 232 227 226 225 226 228
313 318 323 326 332 337 339 341 348 353 358 358 359 355 356 351 354 354 353 353 354 358 2 9 14 20 21 33 63 147 162 203 226 231 237 237 241 244 247 244 237 233 232 227 224 224 228
310 315 319 324 329 335 336 340 347 354 357 357 360 355 355 351 352 353 353 349 349 352 355 2 11 20 29 19 22 196 191 191 198 212 220 229 234 237 239 239 238 229 226 227 227 224 228
306 311 316 322 328 332 335 337 345 352 356 355 357 356 355 352 350 354 351 348 345 345 349 353 359 8 24 42 49 180 209 206 208 215 217 220 224 230 233 235 233 229 225 222 223 223 225
303 309 314 321 325 330 333 335 343 348 354 354 355 355 354 352 350 350 352 347 341 340 339 345 349 355 4 18 37 90 202 213 213 213 214 219 220 225 225 228 228 229 228 226 225 226 225
301 308 312 318 322 326 330 335 340 346 352 352 355 357 355 346 341 345 348 350 341 334 332 332 338 342 349 358 6 28 57 215 225 227 222 223 226 226 229 231 233 233 233 232 232 230 229
299 305 310 314 318 323 327 334 339 344 351 351 356 356 358 349 343 341 344 346 343 330 326 323 325 327 332 334 323 317 243 198 219 226 234 235 231 229 231 232 231 232 234 232 230 233 230
298 303 307 312 317 321 326 332 337 342 348 350 353 353 354 351 341 338 342 345 346 328 320 314 311 313 314 305 301 294 277 254 231 225 223 230 233 236 236 234 237 238 235 234 234 234 234
298 301 305 310 313 319 325 331 336 339 345 348 349 351 353 354 340 335 335 341 343 325 316 310 300 294 298 294 289 281 284 273 264 255 247 243 239 241 243 242 238 237 239 241 240 237 236
295 298 302 309 313 319 325 330 334 337 343 346 348 351 355 353 339 333 334 339 343 327 311 307 297 285 280 281 279 267 267 267 263 256 250 249 250 243 239 241 246 250 245 242 243 241 241
293 295 301 308 313 318 324 327 332 336 340 345 347 351 354 354 339 334 332 334 337 328 311 303 295 286 272 273 274 269 265 262 256 259 256 250 249 249 244 243 245 245 246 247 245 245 244
291 296 306 309 314 319 322 325 329 335 338 344 347 348 352 349 343 327 329 334 337 327 308 296 288 281 269 266 268 269 263 258 257 255 258 258 256 250 250 244 238 250 251 248 251 247 245
293 300 304 308 314 317 321 323 328 333 336 342 344 345 354 357 349 329 326 337 336 324 306 290 283 274 265 261 261 265 264 259 257 254 254 255 257 256 254 249 240 244 251 256 249 250 250
293 299 303 308 312 315 318 322 327 329 334 340 342 345 349 352 352 331 322 335 331 319 303 293 278 264 258 254 257 260 258 256 257 252 254 254 253 254 256 256 245 240 247 252 252 244 246
295 298 303 307 310 314 318 322 325 328 332 337 343 349 347 356 351 337 323 331 329 316 303 293 274 266 257 250 252 254 258 256 252 249 249 249 252 252 254 258 257 251 247 250 257 255 244
Height
10771 10759 10747 10732 10719 10701 10682 10658 10637 10619 10606 10591 10576 10558 10535 10513 10493 10472 10453 10433 10416 10403 10392 10385 10379 10381 10390 10402 10406 10414 10440 10457 10470 10477 10493 10511 10528 10546 10568 10590 10603 10617 10627 10643 10656 10676 10683
10766 10755 10744 10728 10712 10697 10676 10651 10630 10612 10595 10580 10565 10549 10527 10504 10484 10463 10442 10422 10404 10390 10379 10371 10366 10366 10374 10383 10390 10404 10424 10442 10452 10470 10483 10503 10517 10533 10551 10569 10588 10602 10612 10625 10644 10662 10672
10761 10751 10739 10724 10707 10690 10672 10649 10627 10603 10585 10571 10558 10542 10520 10497 10477 10458 10435 10417 10397 10382 10369 10361 10356 10357 10363 10369 10380 10393 10409 10429 10439 10456 10474 10490 10501 10521 10540 10555 10568 10583 10596 10614 10635 10649 10665
10756 10747 10734 10720 10703 10685 10666 10651 10623 10600 10579 10562 10551 10534 10514 10493 10473 10454 10432 10412 10394 10378 10365 10355 10349 10349 10351 10361 10370 10384 10400 10417 10431 10446 10459 10473 10490 10506 10525 10543 10555 10574 10584 10605 10625 10634 10648
10753 10742 10730 10716 10701 10683 10663 10644 10623 10598 10575 10556 10542 10529 10508 10487 10470 10453 10430 10410 10392 10377 10364 10354 10348 10346 10349 10356 10367 10377 10394 10410 10424 10436 10450 10463 10484 10500 10517 10534 10552 10567 10581 10608 10614 10623 10633
10750 10739 10726 10712 10697 10680 10661 10640 10623 10598 10574 10552 10536 10525 10507 10484 10467 10449 10435 10414 10395 10379 10366 10358 10351 10349 10350 10355 10364 10376 10393 10407 10418 10428 10440 10457 10477 10494 10513 10529 10553 10570 10583 10592 10601 10611 10621
10747 10735 10722 10709 10694 10679 10660 10640 10621 10599 10573 10552 10532 10517 10504 10487 10465 10449 10433 10419 10401 10385 10371 10363 10357 10353 10353 10358 10365 10377 10393 10407 10414 10421 10437 10455 10476 10495 10505 10518 10537 10549 10561 10573 10586 10597 10604
10743 10731 10719 10706 10692 10677 10660 10641 10617 10597 10575 10551 10532 10517 10502 10485 10468 10451 10437 10421 10405 10392 10378 10369 10363 10360 10360 10364 10369 10379 10389 10400 10408 10420 10434 10451 10470 10481 10492 10504 10519 10536 10551 10568 10570 10580 10591
10738 10728 10716 10702 10691 10676 10661 10642 10618 10597 10579 10555 10536 10519 10501 10484 10471 10455 10439 10427 10415 10400 10385 10379 10371 10368 10367 10370 10375 10381 10390 10400 10408 10412 10428 10444 10458 10471 10486 10498 10515 10530 10542 10557 10563 10570 10584
10734 10725 10714 10702 10688 10674 10659 10643 10623 10600 10582 10557 10539 10520 10501 10486 10469 10458 10446 10432 10418 10409 10395 10389 10381 10376 10374 10376 10381 10386 10394 10400 10405 10411 10423 10440 10456 10469 10480 10492 10507 10519 10531 10546 10558 10560 10572
10730 10721 10710 10701 10687 10673 10658 10643 10625 10600 10583 10562 10541 10525 10508 10489 10476 10461 10451 10438 10426 10415 10407 10398 10390 10385 10384 10383 10387 10390 10395 10399 10405 10415 10424 10441 10454 10465 10476 10487 10499 10511 10524 10536 10545 10554 10557
10725 10716 10706 10696 10685 10672 10659 10641 10625 10606 10584 10566 10543 10528 10514 10497 10482 10471 10456 10446 10435 10423 10416 10408 10401 10395 10392 10390 10391 10396 10399 10404 10410 10415 10422 10437 10450 10462 10471 10483 10496 10506 10518 10528 10539 10548 10559
10720 10712 10703 10691 10681 10670 10658 10644 10626 10607 10587 10568 10549 10533 10517 10501 10488 10477 10465 10455 10445 10434 10423 10418 10412 10405 10399 10397 10398 10402 10405 10408 10414 10420 10428 10437 10450 10460 10471 10481 10491 10501 10512 10524 10536 10548 10567
10714 10707 10699 10688 10677 10667 10656 10643 10626 10609 10590 10574 10552 10535 10522 10507 10493 10480 10470 10459 10452 10442 10433 10425 10418 10413 10408 10404 10405 10407 10409 10411 10418 10422 10429 10437 10447 10456 10466 10475 10482 10494 10506 10514 10522 10535 10537
10707 10700 10694 10683 10675 10665 10654 10641 10628 10608 10591 10577 10558 10538 10524 10512 10497 10484 10472 10463 10455 10449 10441 10431 10425 10419 10415 10413 10412 10412 10414 10415 10418 10423 10428 10436 10442 10450 10457 10465 10475 10484 10492 10496 10508 10517 10520
10700 10693 10688 10679 10671 10662 10650 10639 10625 10608 10592 10576 10560 10543 10527 10511 10502 10487 10477 10467 10457 10450 10446 10438 10431 10425 10420 10419 10416 10414 10417 10420 10421 10425 10429 10434 10439 10442 10447 10454 10462 10469 10472 10483 10490 10499 10506
10693 10686 10681 10675 10666 10659 10648 10637 10623 10608 10590 10574 10559 10542 10527 10513 10503 10491 10479 10469 10460 10451 10444 10440 10436 10432 10426 10420 10420 10419 10419 10419 10422 10425 10428 10431 10434 10437 10440 10443 10446 10455 10463 10470 10476 10489 10492
10685 10679 10674 10669 10661 10654 10644 10633 10621 10607 10590 10572 10559 10542 10526 10510 10496 10491 10479 10469 10460 10450 10444 10440 10436 10432 10430 10427 10423 10422 10421 10420 10421 10423 10424 10426 10428 10432 10434 10438 10441 10444 10448 10453 10460 10468 10478
10676 10671 10667 10661 10654 10647 10640 10629 10617 10603 10586 10574 10558 10542 10525 10507 10492 10486 10478 10468 10458 10451 10442 10437 10435 10432 10429 10426 10425 10424 10423 10423 10422 10422 10423 10423 10425 10426 10427 10429 10433 10437 10440 10445 10451 10457 10467
10667 10664 10658 10654 10647 10641 10634 10624 10612 10598 10585 10569 10555 10539 10521 10504 10487 10480 10473 10464 10454 10448 10442 10434 10430 10429 10427 10424 10422 10422 10421 10421 10419 10419 10420 10420 10421 10422 10423 10426 10429 10431 10436 10441 10445 10450 10456
10659 10654 10649 10645 10638 10634 10625 10615 10605 10595 10578 10565 10551 10535 10517 10502 10481 10472 10467 10458 10450 10442 10437 10432 10427 10423 10421 10420 10420 10419 10418 10418 10418 10418 10417 10418 10417 10418 10420 10421 10422 10425 10428 10432 10435 10439 10447
10651 10645 10639 10636 10632 10625 10616 10606 10596 10587 10573 10561 10549 10535 10517 10494 10474 10458 10459 10453 10444 10437 10431 10425 10420 10418 10417 10415 10415 10414 10412 10412 10413 10414 10414 10415 10415 10415 10415 10416 10418 10420 10421 10424 10427 10432 10437
10640 10635 10630 10627 10622 10615 10607 10599 10589 10580 10568 10557 10544 10530 10512 10491 10472 10455 10450 10443 10437 10429 10423 10421 10417 10413 10410 10408 10406 10407 10407 10407 10406 10407 10408 10409 10409 10410 10411 10412 10412 10413 10416 10418 10422 10423 10427
10629 10624 10621 10619 10611 10605 10597 10589 10581 10572 10563 10552 10537 10523 10504 10487 10465 10448 10440 10434 10429 10422 10416 10412 10410 10407 10405 10403 10402 10400 10400 10401 10401 10402 10403 10403 10403 10404 10405 10406 10407 10410 10413 10413 10413 10416 10421
10618 10613 10612 10607 10600 10593 10587 10577 10571 10563 10555 10545 10532 10519 10504 10483 10464 10442 10433 10424 10420 10414 10409 10404 10401 10400 10398 10396 10395 10394 10394 10395 10396 10395 10396 10396 10396 10397 10398 10399 10401 10404 10405 10406 10407 10409 10411
10607 10602 10599 10594 10589 10582 10575 10567 10560 10554 10545 10537 10524 10512 10496 10476 10452 10433 10424 10415 10411 10404 10399 10395 10392 10392 10390 10389 10388 10388 10388 10388 10388 10388 10388 10388 10389 10390 10391 10392 10394 10396 10396 10398 10399 10401 10402
10592 10591 10585 10581 10576 10571 10565 10557 10550 10543 10536 10527 10516 10503 10490 10471 10442 10426 10411 10405 10400 10394 10388 10383 10381 10381 10381 10382 10380 10380 10380 10379 10380 10381 10381 10382 10383 10383 10384 10385 10387 10387 10388 10390 10392 10394 10396
10578 10576 10571 10567 10563 10557 10552 10546 10539 10532 10524 10517 10507 10496 10487 10459 10433 10419 10402 10396 10391 10384 10378 10376 10373 10370 10371 10372 10373 10373 10372 10372 10373 10373 10374 10375 10376 10376 10377 10378 10380 10381 10382 10383 10384 10385 10388
10564 10561 10558 10554 10550 10545 10539 10534 10528 10520 10513 10506 10497 10490 10477 10450 10421 10408 10392 10385 10380 10375 10369 10368 10365 10363 10363 10362 10365 10365 10365 10365 10366 10366 10367 10367 10368 10369 10369 10370 10373 10374 10376 10377 10378 10379 10381